Terug naar catalogus

CZ-6A DEB

ActiefPO
NORAD 64639·DEBRIS·🇨🇳 China

Gelanceerd Aug 6, 2024 vanaf Taiyuan Satellite Launch Center

Loading…

Volgende Passages (komende 24 uur)

TLE

VersSource: Space-Track

Epoch: Sep 14, 2026, 05:51 UTC

1 64639U 24140AED 26257.24395741  .00000249  00000-0  15154-3 0  9990
2 64639  88.8317 253.3394 0142028 349.2495  10.5654 13.98365156101603

Volg CZ-6A DEB in realtime met AllMySat

Download on the App Store